Anderson, SC

9:56 PM EST on February 11, 2016 (GMT -0500)
Anderson Regional

Weather History for KAND - February, 2014

Change the Weather History Date:

Tuesday, February 4, 2014

  Actual Average Record
Temperature  
Mean Temperature 44 °F -  
Max Temperature 50 °F 54 °F 77 °F (1957)
Min Temperature 39 °F 33 °F 13 °F (1970)
Degree Days  
Heating Degree Days 20    
Moisture  
Dew Point 38 °F    
Average Humidity 85    
Maximum Humidity 96    
Minimum Humidity 66    
Precipitation  
Precipitation 0.03 in - - ()
Sea Level Pressure  
Sea Level Pressure 30.19 in    
Wind  
Wind Speed 11 mph (ENE)    
Max Wind Speed 17 mph    
Max Gust Speed 23 mph    
Visibility 8 miles    
Events Rain    
Averages and records for this station are not official NWS values.
T = Trace of Precipitation, MM = Missing Value Source: NWS Daily Summary

Daily Weather History Graph

Daily Weather History Graph

Search for Another Location

Airport or City:

Trip Planner

Search our weather history database for the weather conditions in past years. The results will help you decide how hot, cold, wet, or windy it might be!

Date:

Astronomy

Feb. 04, 2014 Rise Set
Actual Time 7:26 AM EST 6:03 PM EST
Civil Twilight 7:00 AM EST 6:29 PM EST
Nautical Twilight 6:30 AM EST 6:59 PM EST
Astronomical Twilight 6:00 AM EST 7:29 PM EST
Moon 10:19 AM EST (2/4) 11:39 PM EST (2/4)
Length of Visible Light 11h 29m
Length of Day
10h 37m
Waxing Crescent, 29% of the Moon is Illuminated
Feb 4
Waxing Crescent
Feb 6
First Quarter
Feb 14
Full
Feb 22
Last Quarter
Mar 1
New

Hourly Weather History & Observations

Time (EST) Temp. Windchill Dew Point Humidity Pressure Visibility Wind Dir Wind Speed Gust Speed Precip Events Conditions
12:56 AM 50.0 °F - 39.0 °F 66% 30.15 in 10.0 mi ENE 11.5 mph 19.6 mph N/A   Clear
1:56 AM 46.9 °F - 39.0 °F 74% 30.17 in 10.0 mi ENE 11.5 mph - N/A   Clear
2:56 AM 46.0 °F 41.0 °F 39.9 °F 79% 30.18 in 10.0 mi ENE 10.4 mph - N/A   Clear
3:56 AM 46.0 °F 41.9 °F 41.0 °F 83% 30.18 in 10.0 mi NE 8.1 mph - N/A   Clear
4:56 AM 44.1 °F 39.5 °F 37.9 °F 79% 30.19 in 10.0 mi NE 8.1 mph - N/A   Clear
5:56 AM 43.0 °F 38.2 °F 37.9 °F 82% 30.21 in 10.0 mi ENE 8.1 mph - N/A   Partly Cloudy
6:56 AM 45.0 °F 40.1 °F 37.9 °F 76% 30.23 in 10.0 mi ENE 9.2 mph - N/A   Overcast
7:49 AM 44.6 °F 38.8 °F 37.4 °F 76% 30.25 in 10.0 mi ENE 11.5 mph - N/A   Overcast
7:56 AM 45.0 °F 38.2 °F 37.0 °F 74% 30.25 in 10.0 mi ENE 15.0 mph - N/A   Overcast
8:56 AM 45.0 °F 38.2 °F 36.0 °F 71% 30.27 in 10.0 mi ENE 15.0 mph 19.6 mph N/A   Overcast
9:56 AM 44.1 °F 37.1 °F 37.0 °F 76% 30.30 in 10.0 mi ENE 15.0 mph - 0.00 in Rain Light Rain
10:56 AM 44.1 °F 36.5 °F 37.0 °F 76% 30.28 in 10.0 mi ENE 17.3 mph 23.0 mph 0.00 in   Overcast
11:56 AM 44.1 °F 37.4 °F 37.0 °F 76% 30.27 in 10.0 mi ENE 13.8 mph - N/A   Overcast
12:56 PM 42.1 °F 34.9 °F 39.0 °F 89% 30.24 in 10.0 mi ENE 13.8 mph - 0.00 in   Overcast
1:20 PM 42.8 °F 36.2 °F 37.4 °F 81% 30.22 in 10.0 mi East 12.7 mph - N/A   Overcast
1:56 PM 42.1 °F 35.2 °F 37.0 °F 82% 30.21 in 10.0 mi ENE 12.7 mph - N/A   Overcast
2:56 PM 41.0 °F 33.5 °F 37.0 °F 86% 30.19 in 10.0 mi ENE 13.8 mph - N/A   Overcast
3:56 PM 39.9 °F 33.4 °F 37.9 °F 93% 30.18 in 10.0 mi ENE 10.4 mph - 0.01 in   Overcast
4:33 PM 39.2 °F 33.6 °F 37.4 °F 93% 30.17 in 10.0 mi NE 8.1 mph - 0.00 in Rain Light Rain
4:56 PM 39.9 °F 32.1 °F 37.9 °F 93% 30.16 in 10.0 mi ENE 13.8 mph - 0.00 in   Overcast
5:56 PM 39.0 °F 31.0 °F 37.9 °F 96% 30.15 in 10.0 mi East 13.8 mph - N/A   Overcast
6:56 PM 39.0 °F 33.4 °F 37.9 °F 96% 30.15 in 5.0 mi ENE 8.1 mph - N/A   Overcast
7:56 PM 39.0 °F 33.4 °F 37.9 °F 96% 30.14 in 3.0 mi ENE 8.1 mph - 0.00 in   Overcast
8:19 PM 39.2 °F 35.0 °F 37.4 °F 93% 30.15 in 2.5 mi NE 5.8 mph - N/A   Overcast
8:34 PM 39.2 °F 33.6 °F 37.4 °F 93% 30.14 in 3.0 mi ENE 8.1 mph - 0.00 in Rain Light Rain
8:56 PM 39.0 °F 33.4 °F 37.9 °F 96% 30.14 in 3.0 mi NE 8.1 mph - 0.01 in Rain Light Rain
9:56 PM 39.0 °F 34.8 °F 37.9 °F 96% 30.14 in 3.0 mi NE 5.8 mph - 0.00 in   Overcast
10:36 PM 39.2 °F 33.6 °F 37.4 °F 93% 30.10 in 2.5 mi ENE 8.1 mph - N/A   Overcast
10:56 PM 39.0 °F 35.7 °F 37.9 °F 96% 30.11 in 3.0 mi ENE 4.6 mph - 0.01 in   Overcast
11:56 PM 39.0 °F 35.7 °F 37.9 °F 96% 30.08 in 3.0 mi ENE 4.6 mph - 0.00 in   Overcast